This is the latest recevied weather packets stored in our database for station/object IZ1GCT. If no packets are shown the sender has not sent any weather packets the latest 10 day(s).
| Time | Temp. | Humidity | Pressure | Rain* | Wind** | Luminosity | Snow |
|---|---|---|---|---|---|---|---|
| 1777481088 | 20° C | 56% | 1018.8 hPa | 0 mm | - | - | - |
| 1777480787 | 20° C | 56% | 1018.7 hPa | 0 mm | - | - | - |
| 1777480486 | 20° C | 56% | 1018.7 hPa | 0 mm | - | - | - |
| 1777480186 | 20° C | 56% | 1018.5 hPa | 0 mm | - | - | - |
| 1777479887 | 20° C | 55% | 1018.6 hPa | 0 mm | - | - | - |
| 1777479586 | 20° C | 53% | 1018.5 hPa | 0 mm | - | - | - |
| 1777479286 | 20° C | 53% | 1018.6 hPa | 0 mm | - | - | - |
| 1777478987 | 20.56° C | 54% | 1018.6 hPa | 0 mm | - | - | - |
| 1777478687 | 21.11° C | 52% | 1018.5 hPa | 0 mm | - | - | - |
| 1777478164 | 21.11° C | 52% | 1018.6 hPa | 0 mm | - | - | - |
| 1777477862 | 21.11° C | 52% | 1018.5 hPa | 0 mm | - | - | - |
| 1777477563 | 20.56° C | 52% | 1018.5 hPa | 0 mm | - | - | - |
| 1777477263 | 20.56° C | 52% | 1018.5 hPa | 0 mm | - | - | - |
| 1777476963 | 20.56° C | 51% | 1018.6 hPa | 0 mm | - | - | - |
| 1777476662 | 20.56° C | 51% | 1018.6 hPa | 0 mm | - | - | - |
| 1777476365 | 21.11° C | 51% | 1018.6 hPa | 0 mm | - | - | - |
| 1777476063 | 21.11° C | 50% | 1018.6 hPa | 0 mm | - | - | - |
| 1777475762 | 22.22° C | 49% | 1018.6 hPa | 0 mm | - | - | - |
| 1777475463 | 22.22° C | 50% | 1018.5 hPa | 0 mm | - | - | - |
| 1777475164 | 22.22° C | 48% | 1018.6 hPa | 0 mm | - | - | - |
| 1777474862 | 21.67° C | 48% | 1018.7 hPa | 0 mm | - | - | - |
| 1777474562 | 22.22° C | 50% | 1018.6 hPa | 0 mm | - | - | - |
| 1777474263 | 22.22° C | 47% | 1018.7 hPa | 0 mm | - | - | - |
| 1777473963 | 22.78° C | 42% | 1018.8 hPa | 0 mm | - | - | - |
| 1777473662 | 22.22° C | 47% | 1018.7 hPa | 0 mm | - | - | - |
* Rain latest hour (hover to see other rain measurements)
** Current wind speed in m/s (hover to see current wind gust speed)